Weather History for Whiting Fld NAS, FL

Change the Weather History Date:

Friday, January 4, 2013

  Actual Average Record
Temperature  
Mean Temperature 46 °F -  
Max Temperature 57 °F 59 °F 77 °F (1997)
Min Temperature 35 °F 41 °F 23 °F (2002)
Degree Days  
Heating Degree Days 19    
Moisture  
Dew Point 29 °F    
Average Humidity 58    
Maximum Humidity 76    
Minimum Humidity 30    
Precipitation  
Precipitation 0.00 in - - ()
Sea Level Pressure  
Sea Level Pressure 30.33 in    
Wind  
Wind Speed 5 mph (North)    
Max Wind Speed 12 mph    
Max Gust Speed -    
Visibility 10 miles    
Events      
Averages and records for this station are not official NWS values.
T = Trace of Precipitation, MM = Missing Value Source: NWS Daily Summary

Daily Weather History Graph

Daily Weather History Graph

Search for Another Location

Airport:

Trip Planner

Search our weather history database for the weather conditions in past years. The results will help you decide how hot, cold, wet, or windy it might be!

Date:

Astronomy

Jan. 04, 2013 Rise Set
Actual Time 6:46 AM CST 5:00 PM CST
Civil Twilight 6:19 AM CST 5:26 PM CST
Nautical Twilight 5:49 AM CST 5:56 PM CST
Astronomical Twilight 5:20 AM CST 6:25 PM CST
Moon No Moon Rise 10:59 AM CST (1/4)
Length of Visible Light 11h 06m
Length of Day
10h 14m
Waning Gibbous, 55% of the Moon is Illuminated
Jan 4
Waning Gibbous
Jan 4
Last Quarter
Jan 11
New
Jan 18
First Quarter
Jan 26
Full

Hourly Weather History & Observations

Time (CST) Temp. Windchill Dew Point Humidity Pressure Visibility Wind Dir Wind Speed Gust Speed Precip Events Conditions
12:56 AM 37.9 °F 33.5 °F 27.0 °F 65% 30.30 in 10.0 mi North 5.8 mph - N/A   Clear
1:56 AM 37.0 °F 34.5 °F 27.0 °F 67% 30.30 in 10.0 mi NNE 3.5 mph - N/A   Clear
2:56 AM 37.0 °F 34.5 °F 27.0 °F 67% 30.30 in 10.0 mi North 3.5 mph - N/A   Clear
3:56 AM 37.0 °F 32.4 °F 26.1 °F 65% 30.30 in 10.0 mi North 5.8 mph - N/A   Clear
4:56 AM 36.0 °F 32.1 °F 26.1 °F 67% 30.31 in 10.0 mi North 4.6 mph - N/A   Clear
5:56 AM 35.1 °F 30.1 °F 26.1 °F 70% 30.31 in 9.0 mi North 5.8 mph - N/A   Scattered Clouds
6:56 AM 35.1 °F 32.2 °F 26.1 °F 70% 30.35 in 8.0 mi North 3.5 mph - N/A   Mostly Cloudy
7:56 AM 37.0 °F 33.3 °F 27.0 °F 67% 30.37 in 9.0 mi North 4.6 mph - N/A   Mostly Cloudy
8:56 AM 41.0 °F 38.0 °F 28.9 °F 62% 30.38 in 10.0 mi NNE 4.6 mph - N/A   Mostly Cloudy
9:56 AM 46.0 °F 42.5 °F 27.0 °F 47% 30.38 in 10.0 mi Variable 6.9 mph - N/A   Mostly Cloudy
10:56 AM 48.0 °F - 28.0 °F 46% 30.38 in 10.0 mi North 6.9 mph - N/A   Mostly Cloudy
11:56 AM 51.1 °F - 26.1 °F 38% 30.35 in 10.0 mi North 11.5 mph - N/A   Mostly Cloudy
12:56 PM 55.9 °F - 28.0 °F 34% 30.32 in 10.0 mi NNE 11.5 mph - N/A   Mostly Cloudy
1:56 PM 57.9 °F - 26.1 °F 30% 30.30 in 10.0 mi NNE 8.1 mph - N/A   Mostly Cloudy
2:56 PM 57.9 °F - 26.1 °F 30% 30.29 in 10.0 mi North 6.9 mph - N/A   Mostly Cloudy
3:56 PM 55.9 °F - 28.0 °F 34% 30.30 in 10.0 mi Variable 3.5 mph - N/A   Mostly Cloudy
4:56 PM 51.1 °F - 32.0 °F 48% 30.31 in 10.0 mi Calm Calm - N/A   Mostly Cloudy
5:56 PM 46.9 °F - 37.0 °F 68% 30.33 in 10.0 mi Calm Calm - N/A   Mostly Cloudy
6:56 PM 44.1 °F - 34.0 °F 68% 30.35 in 10.0 mi Calm Calm - N/A   Mostly Cloudy
7:56 PM 44.1 °F - 30.9 °F 60% 30.36 in 10.0 mi Calm Calm - N/A   Mostly Cloudy
8:56 PM 43.0 °F - 36.0 °F 76% 30.35 in 10.0 mi Calm Calm - N/A   Mostly Cloudy
9:56 PM 43.0 °F 41.3 °F 35.1 °F 74% 30.35 in 10.0 mi NNW 3.5 mph - N/A   Mostly Cloudy
10:41 PM 42.8 °F 40.1 °F 32.0 °F 66% 30.36 in 10.0 mi North 4.6 mph - N/A   Mostly Cloudy
10:56 PM 44.1 °F 41.5 °F 30.9 °F 60% 30.33 in 10.0 mi North 4.6 mph - N/A   Clear
11:56 PM 43.0 °F 40.3 °F 32.0 °F 65% 30.32 in 10.0 mi North 4.6 mph - N/A   Clear